EW9945 Weather Reports


time (UTC)temp
C
wind
direction
speed
KPH
gust
KPH
rain 1hr
cm
rain 24hr
cm
rain mn
cm
humidity
%
barometer
mb
20260502203002 7 304 11.3 19.3 0.00 0.46 0.00 55 1013.3
20260502201502 7 337 6.4 12.9 0.00 0.46 0.00 56 1013.3
20260502200059 6 298 4.8 12.9 0.00 0.53 0.00 58 1013.6
20260502194558 6 305 6.4 12.9 0.00 0.53 0.00 57 1013.7
20260502193104 7 304 8.0 16.1 0.00 0.53 0.00 55 1013.7
20260502191602 8 5 4.8 8.0 0.00 0.53 0.00 50 1013.9
20260502190110 8 15 0.0 9.7 0.00 0.53 0.00 50 1014.0
20260502184603 7 336 0.0 1.6 0.00 0.53 0.00 51 1014.0
20260502183110 7 324 0.0 9.7 0.00 0.53 0.00 53 1013.9
20260502181555 7 304 0.0 8.0 0.00 0.53 0.00 51 1014.0
20260502163056 7 308 8.0 17.7 0.00 0.53 0.00 50 1014.1
20260502161611 7 307 0.0 11.3 0.00 0.53 0.00 52 1014.2
20260502151551 7 350 1.6 11.3 0.00 0.53 0.00 50 1014.4
20260502123035 5 305 3.2 6.4 0.00 0.53 0.00 68 1015.1
20260502121531 4 304 3.2 11.3 0.00 0.53 0.00 69 1015.0
20260502114525 3 301 0.0 0.0 0.00 0.53 0.00 75 1015.1
20260502113022 3 301 0.0 8.0 0.00 0.53 0.00 77 1015.1
20260502111521 3 301 0.0 0.0 0.00 0.53 0.00 79 1015.1
20260502110019 2 301 0.0 0.0 0.00 0.53 0.00 84 1015.1
20260502104516 1 301 0.0 0.0 0.00 0.53 0.00 89 1015.0
20260502103013 1 301 0.0 0.0 0.00 0.53 0.00 87 1014.8
20260502101510 1 301 0.0 0.0 0.00 0.53 0.00 87 1014.5
20260502091504 2 301 0.0 0.0 0.00 0.53 0.00 87 1013.8
20260502070117 4 307 0.0 0.0 0.00 0.53 0.53 87 1013.4
20260502064559 3 307 0.0 0.0 0.00 0.53 0.53 89 1013.3
20260502063058 3 307 0.0 0.0 0.00 0.53 0.53 87 1013.6
20260502061558 3 307 0.0 0.0 0.00 0.53 0.53 85 1013.7
20260502060057 3 307 0.0 0.0 0.00 0.53 0.53 88 1013.8
20260502054557 3 307 0.0 4.8 0.00 0.53 0.53 87 1013.9
20260502053122 3 307 0.0 0.0 0.00 0.53 0.53 89 1013.8
20260502051612 3 307 0.0 0.0 0.00 0.53 0.53 88 1013.6
20260502050056 3 307 0.0 0.0 0.00 0.53 0.53 87 1013.5
20260502044556 3 307 0.0 6.4 0.00 0.53 0.53 88 1013.3
20260502043110 3 307 1.6 9.7 0.00 0.53 0.53 89 1013.3
20260502041626 3 306 3.2 12.9 0.00 0.53 0.53 89 1013.4
20260502040056 4 296 1.6 8.0 0.00 0.53 0.53 90 1013.4
20260502034555 4 291 3.2 9.7 0.00 0.53 0.53 91 1013.5
20260502033106 4 288 1.6 8.0 0.00 0.53 0.53 91 1013.2
20260502031554 5 285 0.0 0.0 0.00 0.53 0.53 91 1013.1
20260502030056 5 285 0.0 0.0 0.00 0.53 0.53 91 1013.1
20260502024556 5 285 0.0 0.0 0.00 0.53 0.53 91 1013.1
20260502023057 5 285 0.0 0.0 0.00 0.53 0.53 91 1012.9
20260502021552 5 285 0.0 3.2 0.00 0.53 0.53 92 1013.0
20260502020055 5 285 0.0 0.0 0.03 0.53 0.53 91 1012.9
20260502014553 5 285 0.0 0.0 0.08 0.53 0.53 91 1013.0
20260502013052 5 285 0.0 6.4 0.15 0.53 0.53 91 1012.9
20260502011552 5 285 0.0 3.2 0.25 0.53 0.53 91 1012.6
20260502010058 6 285 0.0 0.0 0.23 0.51 0.51 91 1012.3
20260502004555 6 285 0.0 0.0 0.23 0.46 0.46 91 1012.4
20260502003051 5 285 0.0 1.6 0.18 0.38 0.38 90 1012.3
20260502001559 6 285 0.0 0.0 0.10 0.30 0.30 90 1012.1
20260502000049 6 285 0.0 0.0 0.10 0.28 0.28 90 1012.0
20260501234549 6 285 0.0 0.0 0.08 0.25 0.25 89 1011.8
20260501233102 6 285 0.0 0.0 0.03 0.20 0.20 87 1011.8
20260501231559 7 285 0.0 0.0 0.03 0.20 0.20 87 1011.8
20260501230050 6 285 0.0 0.0 0.00 0.18 0.18 88 1011.8
20260501224550 6 285 0.0 0.0 0.00 0.18 0.18 88 1011.8
20260501223111 6 285 0.0 1.6 0.03 0.18 0.18 87 1012.0
20260501221549 6 288 0.0 3.2 0.03 0.18 0.18 88 1012.0
20260501220049 6 291 0.0 3.2 0.03 0.20 0.18 88 1011.9
20260501214549 6 292 0.0 3.2 0.05 0.20 0.18 87 1011.9
20260501213048 7 292 0.0 0.0 0.05 0.18 0.15 85 1012.1
20260501211551 7 292 0.0 0.0 0.08 0.18 0.15 84 1012.1
20260501210046 7 292 0.0 4.8 0.13 0.18 0.15 84 1011.9
20260501204600 7 292 0.0 0.0 0.13 0.15 0.13 85 1011.9